This is the latest recevied weather packets stored in our database for station/object N2UFM. If no packets are shown the sender has not sent any weather packets the latest 10 day(s).
| Time | Temp. | Humidity | Pressure | Rain* | Wind** | Luminosity | Snow |
|---|---|---|---|---|---|---|---|
| 1778255200 | 16.67° C | 41% | 1014.2 hPa | 0 mm | - | - | - |
| 1778254900 | 16.67° C | 41% | 1014.2 hPa | 0 mm | - | - | - |
| 1778254600 | 16.67° C | 41% | 1014.2 hPa | 0 mm | - | - | - |
| 1778254299 | 17.22° C | 40% | 1014.2 hPa | 0 mm | - | - | - |
| 1778253999 | 17.22° C | 41% | 1014.2 hPa | 0 mm | - | - | - |
| 1778253699 | 17.22° C | 40% | 1014.1 hPa | 0 mm | - | - | - |
| 1778253399 | 17.22° C | 39% | 1014.3 hPa | 0 mm | - | - | - |
| 1778253099 | 17.22° C | 42% | 1014.1 hPa | 0 mm | - | - | - |
| 1778252799 | 17.22° C | 41% | 1014.1 hPa | 0 mm | - | - | - |
| 1778252498 | 17.22° C | 44% | 1014.1 hPa | 0 mm | - | - | - |
| 1778252198 | 17.22° C | 43% | 1014.2 hPa | 0 mm | - | - | - |
| 1778251898 | 17.22° C | 43% | 1014.2 hPa | 0 mm | - | - | - |
| 1778251598 | 16.67° C | 43% | 1014.1 hPa | 0 mm | - | - | - |
| 1778251298 | 16.67° C | 43% | 1014.1 hPa | 0 mm | - | - | - |
| 1778250998 | 16.67° C | 43% | 1014.2 hPa | 0 mm | - | - | - |
| 1778250698 | 16.67° C | 42% | 1014.3 hPa | 0 mm | - | - | - |
| 1778250398 | 16.67° C | 43% | 1014.4 hPa | 0 mm | - | - | - |
| 1778250097 | 16.11° C | 44% | 1014.4 hPa | 0 mm | - | - | - |
| 1778249797 | 16.11° C | 45% | 1014.4 hPa | 0 mm | - | - | - |
| 1778249497 | 16.11° C | 44% | 1014.5 hPa | 0 mm | - | - | - |
| 1778249197 | 16.11° C | 45% | 1014.3 hPa | 0 mm | - | - | - |
| 1778248897 | 16.11° C | 46% | 1014.4 hPa | 0 mm | - | - | - |
| 1778248597 | 15.56° C | 47% | 1014.3 hPa | 0 mm | - | - | - |
| 1778248297 | 16.11° C | 48% | 1014.4 hPa | 0 mm | - | - | - |
| 1778247996 | 15.56° C | 49% | 1014.5 hPa | 0 mm | - | - | - |
* Rain latest hour (hover to see other rain measurements)
** Current wind speed in m/s (hover to see current wind gust speed)